START_TIME,STEP,MOV.,A46,t_acc.,A13,t_acc.,M47,t_acc.,A17,t_acc.,A28,t_acc.,M38,t_acc.
1979-07-17 12:00:25.500 ,0,0,,0,15.,4.8,2.,4.8,,0,0.,4.8,3.,4.8
1979-07-17 12:00:30.300 ,0,0,,0,8.,4.8,0.,4.8,,0,0.,4.8,4.,4.8
1979-07-17 12:00:35.100 ,0,0,,0,8.,4.8,1.,4.8,,0,0.,4.8,6.,4.8
1979-07-17 12:00:39.900 ,0,0,,0,0.,4.8,0.,4.8,,0,0.,4.8,4.,4.8
1979-07-17 12:00:44.700 ,0,0,,0,0.,4.8,0.,4.8,,0,0.,4.8,7.,4.8
1979-07-17 12:00:49.500 ,1,0,,0,0.,4.8,0.,4.8,,0,0.,4.8,4.,4.8
1979-07-17 12:00:54.300 ,1,0,,0,0.,4.8,0.,4.8,,0,0.,4.8,10.,4.8
1979-07-17 12:00:59.100 ,1,0,,0,3.,4.8,1.,4.8,,0,0.,4.8,11.,4.8
1979-07-17 12:01:03.900 ,1,0,,0,33.,4.8,4.,4.8,,0,0.,4.8,15.,4.8
1979-07-17 12:01:08.700 ,1,0,,0,44.,4.8,2.,4.8,,0,0.,4.8,12.,4.8
1979-07-17 12:01:13.500 ,1,0,,0,21.,4.8,6.,4.8,,0,0.,4.8,7.,4.8
1979-07-17 12:01:18.300 ,1,0,,0,36.,4.8,2.,4.8,,0,0.,4.8,14.,4.8
1979-07-17 12:01:23.100 ,1,0,,0,24.,4.8,2.,4.8,,0,0.,4.8,8.,4.8
1979-07-17 12:01:27.900 ,1,0,,0,0.,4.8,0.,4.8,,0,0.,4.8,9.,4.8
1979-07-17 12:01:32.700 ,1,0,,0,0.,4.8,0.,4.8,,0,0.,4.8,17.,4.8
1979-07-17 12:01:37.500 ,2,0,,0,0.,4.8,0.,4.8,,0,0.,4.8,13.,4.8
1979-07-17 12:01:42.300 ,2,0,,0,0.,4.8,0.,4.8,,0,0.,4.8,19.,4.8
1979-07-17 12:01:47.100 ,2,0,,0,16.,4.8,1.,4.8,,0,0.,4.8,19.,4.8
1979-07-17 12:01:51.900 ,2,0,,0,66.,4.8,4.,4.8,,0,0.,4.8,29.,4.8
1979-07-17 12:01:56.700 ,2,0,,0,43.,4.8,7.,4.8,,0,0.,4.8,35.,4.8
1979-07-17 12:02:01.500 ,2,0,,0,49.,4.8,4.,4.8,,0,0.,4.8,30.,4.8
1979-07-17 12:02:06.300 ,2,0,,0,60.,4.8,2.,4.8,,0,0.,4.8,18.,4.8
1979-07-17 12:02:11.100 ,2,0,,0,45.,4.8,2.,4.8,,0,0.,4.8,37.,4.8
1979-07-17 12:02:15.900 ,2,0,,0,0.,4.8,0.,4.8,,0,0.,4.8,25.,4.8
1979-07-17 12:02:20.700 ,2,0,,0,0.,4.8,0.,4.8,,0,0.,4.8,24.,4.8
1979-07-17 12:02:25.500 ,3,0,,0,0.,4.8,0.,4.8,,0,0.,4.8,27.,4.8
1979-07-17 12:02:30.300 ,3,0,,0,0.,4.8,0.,4.8,,0,0.,4.8,26.,4.8
1979-07-17 12:02:35.100 ,3,0,,0,1.,4.8,0.,4.8,,0,0.,4.8,7.,4.8
1979-07-17 12:02:39.900 ,3,0,,0,25.,4.8,2.,4.8,,0,0.,4.8,7.,4.8
1979-07-17 12:02:44.700 ,3,0,,0,27.,4.8,6.,4.8,,0,0.,4.8,12.,4.8
1979-07-17 12:02:49.500 ,3,0,,0,18.,4.8,1.,4.8,,0,0.,4.8,13.,4.8
1979-07-17 12:02:54.300 ,3,0,,0,27.,4.8,3.,4.8,,0,0.,4.8,9.,4.8
1979-07-17 12:02:59.100 ,3,0,,0,13.,4.8,1.,4.8,,0,0.,4.8,3.,4.8
1979-07-17 12:03:03.900 ,3,0,,0,0.,4.8,0.,4.8,,0,0.,4.8,14.,4.8
1979-07-17 12:03:08.700 ,3,0,,0,0.,4.8,0.,4.8,,0,0.,4.8,6.,4.8
1979-07-17 12:03:13.500 ,4,0,,0,0.,4.8,0.,4.8,,0,0.,4.8,13.,4.8
1979-07-17 12:03:18.300 ,4,0,,0,0.,4.8,0.,4.8,,0,0.,4.8,8.,4.8
1979-07-17 12:03:23.100 ,4,0,,0,4.,4.8,0.,4.8,,0,0.,4.8,5.,4.8
1979-07-17 12:03:27.900 ,4,0,,0,16.,4.8,4.,4.8,,0,0.,4.8,7.,4.8
1979-07-17 12:03:32.700 ,4,0,,0,9.,4.8,1.,4.8,,0,0.,4.8,5.,4.8
1979-07-17 12:03:37.500 ,4,0,,0,11.,4.8,2.,4.8,,0,0.,4.8,7.,4.8
1979-07-17 12:03:42.300 ,4,0,,0,19.,4.8,1.,4.8,,0,0.,4.8,7.,4.8
1979-07-17 12:03:47.100 ,4,0,,0,11.,4.8,1.,4.8,,0,0.,4.8,8.,4.8
1979-07-17 12:03:51.900 ,4,0,,0,0.,4.8,0.,4.8,,0,0.,4.8,5.,4.8
1979-07-17 12:03:56.700 ,4,0,,0,0.,4.8,0.,4.8,,0,0.,4.8,13.,4.8
1979-07-17 12:04:01.500 ,5,0,,0,0.,4.8,0.,4.8,,0,0.,4.8,6.,4.8
1979-07-17 12:04:06.300 ,5,0,,0,0.,4.8,0.,4.8,,0,0.,4.8,3.,4.8
1979-07-17 12:04:11.100 ,5,0,,0,3.,4.8,0.,4.8,,0,0.,4.8,4.,4.8
1979-07-17 12:04:15.900 ,5,0,,0,8.,4.8,1.,4.8,,0,0.,4.8,2.,4.8
1979-07-17 12:04:20.700 ,5,0,,0,6.,4.8,1.,4.8,,0,0.,4.8,4.,4.8
1979-07-17 12:04:25.500 ,5,0,,0,10.,4.8,1.,4.8,,0,0.,4.8,2.,4.8
1979-07-17 12:04:30.300 ,5,0,,0,8.,4.8,0.,4.8,,0,0.,4.8,7.,4.8
1979-07-17 12:04:35.100 ,5,0,,0,6.,4.8,3.,4.8,,0,0.,4.8,2.,4.8
1979-07-17 12:04:39.900 ,5,0,,0,0.,4.8,0.,4.8,,0,0.,4.8,6.,4.8
1979-07-17 12:04:44.700 ,5,0,,0,0.,4.8,0.,4.8,,0,0.,4.8,3.,4.8
1979-07-17 12:04:49.500 ,6,0,,0,0.,4.8,0.,4.8,,0,0.,4.8,5.,4.8
1979-07-17 12:04:54.300 ,6,0,,0,0.,4.8,0.,4.8,,0,0.,4.8,6.,4.8
1979-07-17 12:04:59.100 ,6,0,,0,0.,4.8,0.,4.8,,0,0.,4.8,3.,4.8
1979-07-17 12:05:03.900 ,6,0,,0,10.,4.8,0.,4.8,,0,0.,4.8,3.,4.8
1979-07-17 12:05:08.700 ,6,0,,0,11.,4.8,2.,4.8,,0,0.,4.8,3.,4.8
1979-07-17 12:05:13.500 ,6,0,,0,10.,4.8,0.,4.8,,0,0.,4.8,3.,4.8
1979-07-17 12:05:18.300 ,6,0,,0,6.,4.8,0.,4.8,,0,0.,4.8,2.,4.8
1979-07-17 12:05:23.100 ,6,0,,0,10.,4.8,1.,4.8,,0,0.,4.8,4.,4.8
1979-07-17 12:05:27.900 ,6,0,,0,0.,4.8,0.,4.8,,0,0.,4.8,2.,4.8
1979-07-17 12:05:32.700 ,6,0,,0,0.,4.8,0.,4.8,,0,0.,4.8,1.,4.8
1979-07-17 12:05:37.500 ,7,0,,0,0.,4.8,0.,4.8,,0,0.,4.8,2.,4.8
1979-07-17 12:05:42.300 ,7,0,,0,0.,4.8,0.,4.8,,0,0.,4.8,1.,4.8
1979-07-17 12:05:47.100 ,7,0,,0,1.,4.8,0.,4.8,,0,0.,4.8,0.,4.8
1979-07-17 12:05:51.900 ,7,0,,0,8.,4.8,0.,4.8,,0,0.,4.8,0.,4.8
1979-07-17 12:05:56.700 ,7,0,,0,7.,4.8,0.,4.8,,0,0.,4.8,0.,4.8
1979-07-17 12:06:01.500 ,7,0,,0,8.,4.8,0.,4.8,,0,0.,4.8,0.,4.8
1979-07-17 12:06:06.300 ,7,0,,0,13.,4.8,0.,4.8,,0,0.,4.8,0.,4.8
1979-07-17 12:06:11.100 ,7,0,,0,5.,4.8,0.,4.8,,0,0.,4.8,0.,4.8
1979-07-17 12:06:15.900 ,7,0,,0,0.,4.8,0.,4.8,,0,0.,4.8,0.,4.8
1979-07-17 12:06:20.700 ,7,0,,0,0.,4.8,0.,4.8,,0,0.,4.8,0.,4.8
1979-07-17 12:06:25.500 ,7,0,,0,0.,4.8,0.,4.8,,0,0.,4.8,0.,4.8
1979-07-17 12:06:30.300 ,7,0,,0,0.,4.8,0.,4.8,,0,0.,4.8,0.,4.8
1979-07-17 12:06:35.100 ,7,0,,0,1.,4.8,0.,4.8,,0,0.,4.8,0.,4.8
1979-07-17 12:06:39.900 ,7,0,,0,6.,4.8,0.,4.8,,0,0.,4.8,0.,4.8
1979-07-17 12:06:44.700 ,7,0,,0,6.,4.8,0.,4.8,,0,0.,4.8,0.,4.8
1979-07-17 12:06:49.500 ,7,0,,0,9.,4.8,0.,4.8,,0,0.,4.8,0.,4.8
1979-07-17 12:06:54.300 ,7,0,,0,9.,4.8,0.,4.8,,0,0.,4.8,0.,4.8
1979-07-17 12:06:59.100 ,7,0,,0,6.,4.8,0.,4.8,,0,0.,4.8,0.,4.8
1979-07-17 12:07:03.900 ,7,0,,0,0.,4.8,0.,4.8,,0,0.,4.8,0.,4.8
1979-07-17 12:07:08.700 ,7,0,,0,0.,4.8,0.,4.8,,0,0.,4.8,0.,4.8
1979-07-17 12:07:13.500 ,6,0,,0,0.,4.8,0.,4.8,,0,0.,4.8,0.,4.8
1979-07-17 12:07:18.300 ,6,0,,0,0.,4.8,0.,4.8,,0,0.,4.8,0.,4.8
1979-07-17 12:07:23.100 ,6,0,,0,1.,4.8,1.,4.8,,0,0.,4.8,1.,4.8
1979-07-17 12:07:27.900 ,6,0,,0,6.,4.8,0.,4.8,,0,0.,4.8,3.,4.8
1979-07-17 12:07:32.700 ,6,0,,0,10.,4.8,2.,4.8,,0,0.,4.8,1.,4.8
1979-07-17 12:07:37.500 ,6,0,,0,11.,4.8,1.,4.8,,0,0.,4.8,0.,4.8
1979-07-17 12:07:42.300 ,6,0,,0,8.,4.8,2.,4.8,,0,0.,4.8,2.,4.8
1979-07-17 12:07:47.100 ,6,0,,0,5.,4.8,0.,4.8,,0,0.,4.8,2.,4.8
1979-07-17 12:07:51.900 ,6,0,,0,0.,4.8,0.,4.8,,0,0.,4.8,3.,4.8
1979-07-17 12:07:56.700 ,6,0,,0,0.,4.8,0.,4.8,,0,0.,4.8,1.,4.8
1979-07-17 12:08:01.500 ,5,0,,0,0.,4.8,0.,4.8,,0,0.,4.8,5.,4.8
1979-07-17 12:08:06.300 ,5,0,,0,0.,4.8,0.,4.8,,0,0.,4.8,1.,4.8
1979-07-17 12:08:11.100 ,5,0,,0,1.,4.8,0.,4.8,,0,0.,4.8,5.,4.8
1979-07-17 12:08:15.900 ,5,0,,0,13.,4.8,1.,4.8,,0,0.,4.8,5.,4.8
1979-07-17 12:08:20.700 ,5,0,,0,7.,4.8,1.,4.8,,0,0.,4.8,9.,4.8
1979-07-17 12:08:25.500 ,5,0,,0,18.,4.8,1.,4.8,,0,0.,4.8,3.,4.8
1979-07-17 12:08:30.300 ,5,0,,0,13.,4.8,2.,4.8,,0,0.,4.8,7.,4.8
1979-07-17 12:08:35.100 ,5,0,,0,11.,4.8,2.,4.8,,0,0.,4.8,0.,4.8
1979-07-17 12:08:39.900 ,5,0,,0,0.,4.8,0.,4.8,,0,0.,4.8,5.,4.8
1979-07-17 12:08:44.700 ,5,0,,0,0.,4.8,0.,4.8,,0,0.,4.8,3.,4.8
1979-07-17 12:08:49.500 ,4,0,,0,0.,4.8,0.,4.8,,0,0.,4.8,4.,4.8
1979-07-17 12:08:54.300 ,4,0,,0,0.,4.8,0.,4.8,,0,0.,4.8,2.,4.8
1979-07-17 12:08:59.100 ,4,0,,0,4.,4.8,0.,4.8,,0,0.,4.8,7.,4.8
1979-07-17 12:09:03.900 ,4,0,,0,21.,4.8,3.,4.8,,0,0.,4.8,3.,4.8
1979-07-17 12:09:08.700 ,4,0,,0,19.,4.8,2.,4.8,,0,0.,4.8,16.,4.8
1979-07-17 12:09:13.500 ,4,0,,0,16.,4.8,0.,4.8,,0,0.,4.8,10.,4.8
1979-07-17 12:09:18.300 ,4,0,,0,13.,4.8,2.,4.8,,0,0.,4.8,2.,4.8
1979-07-17 12:09:23.100 ,4,0,,0,9.,4.8,2.,4.8,,0,0.,4.8,8.,4.8
1979-07-17 12:09:27.900 ,4,0,,0,0.,4.8,0.,4.8,,0,0.,4.8,7.,4.8
1979-07-17 12:09:32.700 ,4,0,,0,0.,4.8,0.,4.8,,0,0.,4.8,6.,4.8
1979-07-17 12:09:37.500 ,3,0,,0,0.,4.8,0.,4.8,,0,0.,4.8,7.,4.8
1979-07-17 12:09:42.300 ,3,0,,0,0.,4.8,0.,4.8,,0,0.,4.8,6.,4.8
1979-07-17 12:09:47.100 ,3,0,,0,7.,4.8,0.,4.8,,0,0.,4.8,6.,4.8
1979-07-17 12:09:51.900 ,3,0,,0,23.,4.8,0.,4.8,,0,0.,4.8,7.,4.8
1979-07-17 12:09:56.700 ,3,0,,0,19.,4.8,2.,4.8,,0,0.,4.8,7.,4.8
1979-07-17 12:10:01.500 ,3,0,,0,22.,4.8,3.,4.8,,0,0.,4.8,5.,4.8
1979-07-17 12:10:06.300 ,3,0,,0,21.,4.8,1.,4.8,,0,0.,4.8,12.,4.8
1979-07-17 12:10:11.100 ,3,0,,0,28.,4.8,3.,4.8,,0,0.,4.8,7.,4.8
1979-07-17 12:10:15.900 ,3,0,,0,0.,4.8,0.,4.8,,0,0.,4.8,8.,4.8
1979-07-17 12:10:20.700 ,3,0,,0,0.,4.8,0.,4.8,,0,0.,4.8,10.,4.8
1979-07-17 12:10:25.500 ,2,0,,0,1.,4.8,0.,4.8,,0,0.,4.8,9.,4.8
1979-07-17 12:10:30.300 ,2,0,,0,0.,4.8,0.,4.8,,0,0.,4.8,19.,4.8
1979-07-17 12:10:35.100 ,2,0,,0,8.,4.8,2.,4.8,,0,0.,4.8,14.,4.8
1979-07-17 12:10:39.900 ,2,0,,0,39.,4.8,5.,4.8,,0,0.,4.8,13.,4.8
1979-07-17 12:10:44.700 ,2,0,,0,45.,4.8,5.,4.8,,0,0.,4.8,15.,4.8
1979-07-17 12:10:49.500 ,2,0,,0,46.,4.8,4.,4.8,,0,0.,4.8,24.,4.8
1979-07-17 12:10:54.300 ,2,0,,0,37.,4.8,5.,4.8,,0,0.,4.8,18.,4.8
1979-07-17 12:10:59.100 ,2,0,,0,31.,4.8,7.,4.8,,0,0.,4.8,21.,4.8
1979-07-17 12:11:03.900 ,2,0,,0,0.,4.8,0.,4.8,,0,0.,4.8,15.,4.8
1979-07-17 12:11:08.700 ,2,0,,0,0.,4.8,0.,4.8,,0,0.,4.8,5.,4.8
1979-07-17 12:11:13.500 ,1,0,,0,0.,4.8,0.,4.8,,0,0.,4.8,12.,4.8
1979-07-17 12:11:18.300 ,1,0,,0,0.,4.8,0.,4.8,,0,0.,4.8,20.,4.8
1979-07-17 12:11:23.100 ,1,0,,0,3.,4.8,0.,4.8,,0,0.,4.8,14.,4.8
1979-07-17 12:11:27.900 ,1,0,,0,21.,4.8,3.,4.8,,0,0.,4.8,12.,4.8
1979-07-17 12:11:32.700 ,1,0,,0,26.,4.8,1.,4.8,,0,0.,4.8,18.,4.8
1979-07-17 12:11:37.500 ,0,0,,0,25.,4.8,0.,4.8,,0,0.,4.8,7.,4.8
1979-07-17 12:11:42.300 ,0,0,,0,34.,4.8,3.,4.8,,0,0.,4.8,9.,4.8
1979-07-17 12:11:47.100 ,0,0,,0,23.,4.8,1.,4.8,,0,0.,4.8,8.,4.8
1979-07-17 12:11:51.900 ,0,0,,0,0.,4.8,0.,4.8,,0,0.,4.8,8.,4.8
1979-07-17 12:11:56.700 ,0,0,,0,,0,,0,,0,,0,,0
1979-07-17 12:11:37.500 ,1,0,,0,25.,4.8,0.,4.8,,0,0.,4.8,7.,4.8
1979-07-17 12:11:42.300 ,1,0,,0,34.,4.8,3.,4.8,,0,0.,4.8,9.,4.8
1979-07-17 12:11:47.100 ,1,0,,0,23.,4.8,1.,4.8,,0,0.,4.8,8.,4.8
1979-07-17 12:11:51.900 ,1,0,,0,0.,4.8,0.,4.8,,0,0.,4.8,8.,4.8
1979-07-17 12:11:56.700 ,1,0,,0,0.,4.8,0.,4.8,,0,0.,4.8,9.,4.8
1979-07-17 12:12:01.500 ,0,0,,0,0.,4.8,0.,4.8,,0,0.,4.8,11.,4.8
1979-07-17 12:12:06.300 ,0,0,,0,0.,4.8,0.,4.8,,0,0.,4.8,17.,4.8
1979-07-17 12:12:11.100 ,0,0,,0,0.,4.8,0.,4.8,,0,0.,4.8,2.,4.8
1979-07-17 12:12:15.900 ,0,0,,0,13.,4.8,1.,4.8,,0,0.,4.8,2.,4.8
1979-07-17 12:12:20.700 ,0,0,,0,5.,4.8,3.,4.8,,0,0.,4.8,11.,4.8
1979-07-17 12:12:25.500 ,0,0,,0,9.,4.8,1.,4.8,,0,0.,4.8,2.,4.8
1979-07-17 12:12:30.300 ,0,0,,0,14.,4.8,2.,4.8,,0,0.,4.8,10.,4.8
1979-07-17 12:12:35.100 ,0,0,,0,8.,4.8,0.,4.8,,0,0.,4.8,3.,4.8
1979-07-17 12:12:39.900 ,0,0,,0,0.,4.8,0.,4.8,,0,0.,4.8,2.,4.8
1979-07-17 12:12:44.700 ,0,0,,0,0.,4.8,0.,4.8,,0,0.,4.8,8.,4.8
1979-07-17 12:12:49.500 ,0,0,,0,0.,4.8,0.,4.8,,0,0.,4.8,6.,4.8
1979-07-17 12:12:54.300 ,0,0,,0,0.,4.8,0.,4.8,,0,0.,4.8,1.,4.8
1979-07-17 12:12:59.100 ,0,0,,0,1.,4.8,0.,4.8,,0,0.,4.8,1.,4.8
1979-07-17 12:13:03.900 ,0,0,,0,10.,4.8,1.,4.8,,0,0.,4.8,3.,4.8
1979-07-17 12:13:08.700 ,0,0,,0,8.,4.8,2.,4.8,,0,0.,4.8,2.,4.8
1979-07-17 12:13:13.500 ,0,0,,0,4.,4.8,1.,4.8,,0,0.,4.8,1.,4.8
1979-07-17 12:13:18.300 ,0,0,,0,12.,4.8,2.,4.8,,0,0.,4.8,8.,4.8
1979-07-17 12:13:23.100 ,0,0,,0,9.,4.8,0.,4.8,,0,0.,4.8,7.,4.8
1979-07-17 12:13:27.900 ,0,0,,0,0.,4.8,0.,4.8,,0,0.,4.8,7.,4.8
1979-07-17 12:13:32.700 ,0,0,,0,0.,4.8,0.,4.8,,0,0.,4.8,6.,4.8
1979-07-17 12:13:37.500 ,1,0,,0,0.,4.8,0.,4.8,,0,0.,4.8,3.,4.8
1979-07-17 12:13:42.300 ,1,0,,0,0.,4.8,0.,4.8,,0,0.,4.8,9.,4.8
1979-07-17 12:13:47.100 ,1,0,,0,0.,4.8,0.,4.8,,0,0.,4.8,8.,4.8
1979-07-17 12:13:51.900 ,1,0,,0,27.,4.8,2.,4.8,,0,0.,4.8,8.,4.8
1979-07-17 12:13:56.700 ,1,0,,0,24.,4.8,3.,4.8,,0,0.,4.8,12.,4.8
1979-07-17 12:14:01.500 ,1,0,,0,22.,4.8,4.,4.8,,0,0.,4.8,7.,4.8
1979-07-17 12:14:06.300 ,1,0,,0,22.,4.8,1.,4.8,,0,0.,4.8,6.,4.8
1979-07-17 12:14:11.100 ,1,0,,0,16.,4.8,2.,4.8,,0,0.,4.8,12.,4.8
1979-07-17 12:14:15.900 ,1,0,,0,0.,4.8,0.,4.8,,0,0.,4.8,13.,4.8
1979-07-17 12:14:20.700 ,1,0,,0,0.,4.8,0.,4.8,,0,0.,4.8,13.,4.8
1979-07-17 12:14:25.500 ,2,0,,0,0.,4.8,0.,4.8,,0,0.,4.8,7.,4.8
1979-07-17 12:14:30.300 ,2,0,,0,0.,4.8,0.,4.8,,0,0.,4.8,8.,4.8
1979-07-17 12:14:35.100 ,2,0,,0,2.,4.8,0.,4.8,,0,0.,4.8,17.,4.8
1979-07-17 12:14:39.900 ,2,0,,0,32.,4.8,5.,4.8,,0,0.,4.8,12.,4.8
1979-07-17 12:14:44.700 ,2,0,,0,38.,4.8,5.,4.8,,0,0.,4.8,10.,4.8
1979-07-17 12:14:49.500 ,2,0,,0,42.,4.8,8.,4.8,,0,0.,4.8,16.,4.8
1979-07-17 12:14:54.300 ,2,0,,0,19.,4.8,2.,4.8,,0,0.,4.8,13.,4.8
1979-07-17 12:14:59.100 ,2,0,,0,37.,4.8,2.,4.8,,0,0.,4.8,13.,4.8
1979-07-17 12:15:03.900 ,2,0,,0,0.,4.8,0.,4.8,,0,0.,4.8,13.,4.8
1979-07-17 12:15:08.700 ,2,0,,0,0.,4.8,0.,4.8,,0,0.,4.8,13.,4.8
1979-07-17 12:15:13.500 ,3,0,,0,0.,4.8,0.,4.8,,0,0.,4.8,16.,4.8
1979-07-17 12:15:18.300 ,3,0,,0,0.,4.8,0.,4.8,,0,0.,4.8,12.,4.8
1979-07-17 12:15:23.100 ,3,0,,0,4.,4.8,1.,4.8,,0,0.,4.8,8.,4.8
1979-07-17 12:15:27.900 ,3,0,,0,21.,4.8,2.,4.8,,0,0.,4.8,7.,4.8
1979-07-17 12:15:32.700 ,3,0,,0,19.,4.8,1.,4.8,,0,0.,4.8,7.,4.8
1979-07-17 12:15:37.500 ,3,0,,0,16.,4.8,1.,4.8,,0,0.,4.8,8.,4.8
1979-07-17 12:15:42.300 ,3,0,,0,27.,4.8,1.,4.8,,0,0.,4.8,5.,4.8
1979-07-17 12:15:47.100 ,3,0,,0,15.,4.8,1.,4.8,,0,0.,4.8,15.,4.8
1979-07-17 12:15:51.900 ,3,0,,0,0.,4.8,0.,4.8,,0,0.,4.8,8.,4.8
1979-07-17 12:15:56.700 ,3,0,,0,0.,4.8,0.,4.8,,0,0.,4.8,12.,4.8
1979-07-17 12:16:01.500 ,4,0,,0,0.,4.8,0.,4.8,,0,0.,4.8,9.,4.8
1979-07-17 12:16:06.300 ,4,0,,0,0.,4.8,0.,4.8,,0,0.,4.8,4.,4.8
1979-07-17 12:16:11.100 ,4,0,,0,5.,4.8,0.,4.8,,0,0.,4.8,8.,4.8
1979-07-17 12:16:15.900 ,4,0,,0,14.,4.8,3.,4.8,,0,0.,4.8,7.,4.8
1979-07-17 12:16:20.700 ,4,0,,0,15.,4.8,1.,4.8,,0,0.,4.8,7.,4.8
1979-07-17 12:16:25.500 ,4,0,,0,14.,4.8,0.,4.8,,0,0.,4.8,7.,4.8
1979-07-17 12:16:30.300 ,4,0,,0,14.,4.8,1.,4.8,,0,0.,4.8,12.,4.8
1979-07-17 12:16:35.100 ,4,0,,0,11.,4.8,1.,4.8,,0,0.,4.8,9.,4.8
1979-07-17 12:16:39.900 ,4,0,,0,0.,4.8,0.,4.8,,0,0.,4.8,12.,4.8
1979-07-17 12:16:44.700 ,4,0,,0,0.,4.8,0.,4.8,,0,0.,4.8,3.,4.8
1979-07-17 12:16:49.500 ,5,0,,0,0.,4.8,0.,4.8,,0,0.,4.8,6.,4.8
1979-07-17 12:16:54.300 ,5,0,,0,0.,4.8,0.,4.8,,0,0.,4.8,8.,4.8
1979-07-17 12:16:59.100 ,5,0,,0,2.,4.8,0.,4.8,,0,0.,4.8,6.,4.8
1979-07-17 12:17:03.900 ,5,0,,0,7.,4.8,0.,4.8,,0,0.,4.8,5.,4.8
1979-07-17 12:17:08.700 ,5,0,,0,15.,4.8,0.,4.8,,0,0.,4.8,1.,4.8
1979-07-17 12:17:13.500 ,5,0,,0,7.,4.8,0.,4.8,,0,0.,4.8,1.,4.8
1979-07-17 12:17:18.300 ,5,0,,0,12.,4.8,3.,4.8,,0,0.,4.8,1.,4.8
1979-07-17 12:17:23.100 ,5,0,,0,11.,4.8,1.,4.8,,0,0.,4.8,3.,4.8
1979-07-17 12:17:27.900 ,5,0,,0,0.,4.8,0.,4.8,,0,0.,4.8,4.,4.8
1979-07-17 12:17:32.700 ,5,0,,0,0.,4.8,0.,4.8,,0,0.,4.8,3.,4.8
1979-07-17 12:17:37.500 ,6,0,,0,0.,4.8,0.,4.8,,0,0.,4.8,6.,4.8
1979-07-17 12:17:42.300 ,6,0,,0,0.,4.8,0.,4.8,,0,0.,4.8,2.,4.8
1979-07-17 12:17:47.100 ,6,0,,0,4.,4.8,0.,4.8,,0,0.,4.8,1.,4.8
1979-07-17 12:17:51.900 ,6,0,,0,7.,4.8,0.,4.8,,0,0.,4.8,1.,4.8
1979-07-17 12:17:56.700 ,6,0,,0,7.,4.8,0.,4.8,,0,0.,4.8,3.,4.8
1979-07-17 12:18:01.500 ,6,0,,0,8.,4.8,1.,4.8,,0,0.,4.8,2.,4.8
1979-07-17 12:18:06.300 ,6,0,,0,10.,4.8,2.,4.8,,0,0.,4.8,2.,4.8
1979-07-17 12:18:11.100 ,6,0,,0,7.,4.8,0.,4.8,,0,0.,4.8,1.,4.8
1979-07-17 12:18:15.900 ,6,0,,0,0.,4.8,0.,4.8,,0,0.,4.8,1.,4.8
1979-07-17 12:18:20.700 ,6,0,,0,0.,4.8,0.,4.8,,0,0.,4.8,1.,4.8
1979-07-17 12:18:25.500 ,7,0,,0,0.,4.8,0.,4.8,,0,0.,4.8,1.,4.8
1979-07-17 12:18:30.300 ,7,0,,0,0.,4.8,0.,4.8,,0,0.,4.8,4.,4.8
1979-07-17 12:18:35.100 ,7,0,,0,0.,4.8,0.,4.8,,0,0.,4.8,0.,4.8
1979-07-17 12:18:39.900 ,7,0,,0,5.,4.8,0.,4.8,,0,0.,4.8,1.,4.8
1979-07-17 12:18:44.700 ,7,0,,0,9.,4.8,0.,4.8,,0,0.,4.8,0.,4.8
1979-07-17 12:18:49.500 ,7,0,,0,7.,4.8,0.,4.8,,0,0.,4.8,0.,4.8
1979-07-17 12:18:54.300 ,7,0,,0,8.,4.8,0.,4.8,,0,0.,4.8,0.,4.8
1979-07-17 12:18:59.100 ,7,0,,0,13.,4.8,0.,4.8,,0,0.,4.8,0.,4.8
1979-07-17 12:19:03.900 ,7,0,,0,1.,4.8,0.,4.8,,0,0.,4.8,0.,4.8
1979-07-17 12:19:08.700 ,7,0,,0,0.,4.8,0.,4.8,,0,0.,4.8,0.,4.8
1979-07-17 12:19:13.500 ,3,1,,0,0.,4.8,0.,4.8,,0,0.,4.8,1.,4.8
1979-07-17 12:19:18.300 ,3,1,,0,0.,4.8,0.,4.8,,0,0.,4.8,4.,4.8
1979-07-17 12:19:23.100 ,3,1,,0,3.,4.8,0.,4.8,,0,0.,4.8,3.,4.8
1979-07-17 12:19:27.900 ,3,1,,0,23.,4.8,1.,4.8,,0,0.,4.8,10.,4.8
1979-07-17 12:19:32.700 ,3,1,,0,19.,4.8,1.,4.8,,0,0.,4.8,7.,4.8
1979-07-17 12:19:37.500 ,0,1,,0,26.,4.8,1.,4.8,,0,0.,4.8,10.,4.8
1979-07-17 12:19:42.300 ,0,1,,0,25.,4.8,3.,4.8,,0,0.,4.8,11.,4.8
1979-07-17 12:19:47.100 ,0,1,,0,11.,4.8,2.,4.8,,0,0.,4.8,4.,4.8
1979-07-17 12:19:51.900 ,0,1,,0,0.,4.8,0.,4.8,,0,0.,4.8,2.,4.8
1979-07-17 12:19:56.700 ,0,1,,0,1.,4.8,0.,4.8,,0,0.,4.8,3.,4.8
1979-07-17 12:20:01.500 ,4,1,,0,0.,4.8,0.,4.8,,0,0.,4.8,5.,4.8
1979-07-17 12:20:06.300 ,4,1,,0,0.,4.8,0.,4.8,,0,0.,4.8,4.,4.8
1979-07-17 12:20:11.100 ,4,1,,0,2.,4.8,2.,4.8,,0,0.,4.8,12.,4.8
1979-07-17 12:20:15.900 ,4,1,,0,12.,4.8,3.,4.8,,0,0.,4.8,4.,4.8
1979-07-17 12:20:20.700 ,4,1,,0,13.,4.8,2.,4.8,,0,0.,4.8,9.,4.8
1979-07-17 12:20:25.500 ,7,1,,0,19.,4.8,2.,4.8,,0,0.,4.8,4.,4.8
1979-07-17 12:20:30.300 ,7,1,,0,7.,4.8,0.,4.8,,0,0.,4.8,2.,4.8
1979-07-17 12:20:35.100 ,7,1,,0,5.,4.8,0.,4.8,,0,0.,4.8,0.,4.8
1979-07-17 12:20:39.900 ,7,1,,0,0.,4.8,0.,4.8,,0,0.,4.8,0.,4.8
1979-07-17 12:20:44.700 ,7,1,,0,0.,4.8,0.,4.8,,0,0.,4.8,0.,4.8
1979-07-17 12:20:49.500 ,3,1,,0,0.,4.8,0.,4.8,,0,0.,4.8,2.,4.8
1979-07-17 12:20:54.300 ,3,1,,0,0.,4.8,0.,4.8,,0,0.,4.8,2.,4.8
1979-07-17 12:20:59.100 ,3,1,,0,3.,4.8,0.,4.8,,0,0.,4.8,4.,4.8
1979-07-17 12:21:03.900 ,3,1,,0,26.,4.8,4.,4.8,,0,0.,4.8,8.,4.8
1979-07-17 12:21:08.700 ,3,1,,0,19.,4.8,1.,4.8,,0,0.,4.8,6.,4.8
1979-07-17 12:21:13.500 ,0,1,,0,22.,4.8,1.,4.8,,0,0.,4.8,14.,4.8
1979-07-17 12:21:18.300 ,0,1,,0,23.,4.8,2.,4.8,,0,0.,4.8,9.,4.8
1979-07-17 12:21:23.100 ,0,1,,0,16.,4.8,1.,4.8,,0,0.,4.8,6.,4.8
1979-07-17 12:21:27.900 ,0,1,,0,0.,4.8,0.,4.8,,0,0.,4.8,0.,4.8
1979-07-17 12:21:32.700 ,0,1,,0,0.,4.8,0.,4.8,,0,0.,4.8,5.,4.8
1979-07-17 12:21:37.500 ,0,0,,0,0.,4.8,0.,4.8,,0,0.,4.8,6.,4.8
1979-07-17 12:21:42.300 ,0,0,,0,0.,4.8,0.,4.8,,0,0.,4.8,4.,4.8
1979-07-17 12:21:47.100 ,0,0,,0,4.,4.8,0.,4.8,,0,0.,4.8,10.,4.8
1979-07-17 12:21:51.900 ,0,0,,0,27.,4.8,1.,4.8,,0,0.,4.8,9.,4.8
1979-07-17 12:21:56.700 ,0,0,,0,22.,4.8,3.,4.8,,0,0.,4.8,6.,4.8
1979-07-17 12:22:01.500 ,7,1,,0,15.,4.8,1.,4.8,,0,0.,4.8,10.,4.8
1979-07-17 12:22:06.300 ,7,1,,0,8.,4.8,1.,4.8,,0,0.,4.8,2.,4.8
1979-07-17 12:22:11.100 ,7,1,,0,5.,4.8,0.,4.8,,0,0.,4.8,3.,4.8
1979-07-17 12:22:15.900 ,7,1,,0,0.,4.8,0.,4.8,,0,0.,4.8,1.,4.8
1979-07-17 12:22:20.700 ,7,1,,0,0.,4.8,0.,4.8,,0,0.,4.8,0.,4.8
1979-07-17 12:22:25.500 ,3,1,,0,0.,4.8,0.,4.8,,0,0.,4.8,2.,4.8
1979-07-17 12:22:30.300 ,3,1,,0,1.,4.8,0.,4.8,,0,0.,4.8,3.,4.8
1979-07-17 12:22:35.100 ,3,1,,0,5.,4.8,0.,4.8,,0,0.,4.8,3.,4.8
1979-07-17 12:22:39.900 ,3,1,,0,21.,4.8,2.,4.8,,0,0.,4.8,9.,4.8
1979-07-17 12:22:44.700 ,3,1,,0,25.,4.8,2.,4.8,,0,0.,4.8,8.,4.8
1979-07-17 12:22:49.500 ,0,1,,0,23.,4.8,2.,4.8,,0,0.,4.8,8.,4.8
1979-07-17 12:22:54.300 ,0,1,,0,20.,4.8,3.,4.8,,0,0.,4.8,9.,4.8
1979-07-17 12:22:59.100 ,0,1,,0,11.,4.8,0.,4.8,,0,0.,4.8,6.,4.8
1979-07-17 12:23:03.900 ,0,1,,0,0.,4.8,0.,4.8,,0,0.,4.8,0.,4.8
1979-07-17 12:23:08.700 ,0,1,,0,0.,4.8,0.,4.8,,0,0.,4.8,4.,4.8
1979-07-17 12:23:13.500 ,4,1,,0,0.,4.8,0.,4.8,,0,0.,4.8,4.,4.8
1979-07-17 12:23:18.300 ,4,1,,0,0.,4.8,0.,4.8,,0,0.,4.8,2.,4.8
1979-07-17 12:23:23.100 ,4,1,,0,3.,4.8,1.,4.8,,0,0.,4.8,5.,4.8
1979-07-17 12:23:27.900 ,4,1,,0,19.,4.8,1.,4.8,,0,0.,4.8,9.,4.8
1979-07-17 12:23:32.700 ,4,1,,0,27.,4.8,3.,4.8,,0,0.,4.8,10.,4.8
1979-07-17 12:23:37.500 ,7,1,,0,10.,4.8,0.,4.8,,0,0.,4.8,6.,4.8
1979-07-17 12:23:42.300 ,7,1,,0,6.,4.8,0.,4.8,,0,0.,4.8,3.,4.8
1979-07-17 12:23:47.100 ,7,1,,0,6.,4.8,0.,4.8,,0,0.,4.8,2.,4.8
1979-07-17 12:23:51.900 ,7,1,,0,0.,4.8,0.,4.8,,0,0.,4.8,0.,4.8
1979-07-17 12:23:56.700 ,7,1,,0,0.,4.8,0.,4.8,,0,0.,4.8,0.,4.8
1979-07-17 12:24:01.500 ,3,1,,0,0.,4.8,0.,4.8,,0,0.,4.8,1.,4.8
1979-07-17 12:24:06.300 ,3,1,,0,0.,4.8,0.,4.8,,0,0.,4.8,2.,4.8
1979-07-17 12:24:11.100 ,3,1,,0,,0,,0,,0,,0,,0
1979-07-17 12:24:15.900 ,3,1,,0,14.,4.8,1.,4.8,,0,0.,4.8,3.,4.8
1979-07-17 12:24:20.700 ,3,1,,0,22.,4.8,4.,4.8,,0,0.,4.8,7.,4.8
1979-07-17 12:24:25.500 ,0,1,,0,24.,4.8,3.,4.8,,0,0.,4.8,13.,4.8
1979-07-17 12:24:30.300 ,0,1,,0,23.,4.8,1.,4.8,,0,0.,4.8,10.,4.8
1979-07-17 12:24:35.100 ,0,1,,0,12.,4.8,1.,4.8,,0,0.,4.8,6.,4.8
1979-07-17 12:24:39.900 ,0,1,,0,0.,4.8,0.,4.8,,0,0.,4.8,0.,4.8
1979-07-17 12:24:44.700 ,0,1,,0,0.,4.8,0.,4.8,,0,0.,4.8,4.,4.8
1979-07-17 12:24:49.500 ,4,1,,0,0.,4.8,0.,4.8,,0,0.,4.8,4.,4.8
1979-07-17 12:24:54.300 ,4,1,,0,0.,4.8,0.,4.8,,0,0.,4.8,8.,4.8
1979-07-17 12:24:59.100 ,4,1,,0,4.,4.8,0.,4.8,,0,0.,4.8,10.,4.8
1979-07-17 12:25:03.900 ,4,1,,0,19.,4.8,0.,4.8,,0,0.,4.8,6.,4.8
1979-07-17 12:25:08.700 ,4,1,,0,15.,4.8,0.,4.8,,0,0.,4.8,11.,4.8
1979-07-17 12:25:13.500 ,7,1,,0,14.,4.8,0.,4.8,,0,0.,4.8,3.,4.8
1979-07-17 12:25:18.300 ,7,1,,0,5.,4.8,1.,4.8,,0,0.,4.8,2.,4.8
1979-07-17 12:25:23.100 ,7,1,,0,6.,4.8,0.,4.8,,0,0.,4.8,1.,4.8
1979-07-17 12:25:27.900 ,7,1,,0,0.,4.8,0.,4.8,,0,0.,4.8,0.,4.8
1979-07-17 12:25:32.700 ,7,1,,0,0.,4.8,0.,4.8,,0,0.,4.8,0.,4.8
1979-07-17 12:25:37.500 ,3,1,,0,0.,4.8,0.,4.8,,0,0.,4.8,1.,4.8
1979-07-17 12:25:42.300 ,3,1,,0,0.,4.8,0.,4.8,,0,0.,4.8,0.,4.8
1979-07-17 12:25:47.100 ,3,1,,0,2.,4.8,0.,4.8,,0,0.,4.8,1.,4.8
1979-07-17 12:25:51.900 ,3,1,,0,23.,4.8,4.,4.8,,0,0.,4.8,9.,4.8
1979-07-17 12:25:56.700 ,3,1,,0,15.,4.8,2.,4.8,,0,0.,4.8,7.,4.8
1979-07-17 12:26:01.500 ,0,1,,0,23.,4.8,1.,4.8,,0,0.,4.8,6.,4.8
1979-07-17 12:26:06.300 ,0,1,,0,28.,4.8,4.,4.8,,0,0.,4.8,9.,4.8
1979-07-17 12:26:11.100 ,0,1,,0,13.,4.8,1.,4.8,,0,0.,4.8,8.,4.8
1979-07-17 12:26:15.900 ,0,1,,0,0.,4.8,0.,4.8,,0,0.,4.8,0.,4.8
1979-07-17 12:26:20.700 ,0,1,,0,0.,4.8,0.,4.8,,0,0.,4.8,2.,4.8
1979-07-17 12:26:25.500 ,4,1,,0,0.,4.8,0.,4.8,,0,0.,4.8,5.,4.8
1979-07-17 12:26:30.300 ,4,1,,0,0.,4.8,0.,4.8,,0,0.,4.8,8.,4.8
1979-07-17 12:26:35.100 ,4,1,,0,5.,4.8,0.,4.8,,0,0.,4.8,9.,4.8
1979-07-17 12:26:39.900 ,4,1,,0,7.,4.8,0.,4.8,,0,0.,4.8,4.,4.8
1979-07-17 12:26:44.700 ,4,1,,0,19.,4.8,2.,4.8,,0,0.,4.8,5.,4.8
1979-07-17 12:26:49.500 ,7,1,,0,12.,4.8,2.,4.8,,0,0.,4.8,6.,4.8
1979-07-17 12:26:54.300 ,7,1,,0,13.,4.8,0.,4.8,,0,0.,4.8,0.,4.8
1979-07-17 12:26:59.100 ,7,1,,0,8.,4.8,1.,4.8,,0,0.,4.8,2.,4.8
1979-07-17 12:27:03.900 ,7,1,,0,0.,4.8,0.,4.8,,0,0.,4.8,0.,4.8
1979-07-17 12:27:08.700 ,7,1,,0,0.,4.8,0.,4.8,,0,0.,4.8,0.,4.8
1979-07-17 12:27:13.500 ,3,1,,0,0.,4.8,0.,4.8,,0,0.,4.8,1.,4.8
1979-07-17 12:27:18.300 ,3,1,,0,0.,4.8,0.,4.8,,0,0.,4.8,2.,4.8
1979-07-17 12:27:23.100 ,3,1,,0,2.,4.8,0.,4.8,,0,0.,4.8,1.,4.8
1979-07-17 12:27:27.900 ,3,1,,0,13.,4.8,0.,4.8,,0,0.,4.8,7.,4.8
1979-07-17 12:27:32.700 ,3,1,,0,17.,4.8,2.,4.8,,0,0.,4.8,13.,4.8
1979-07-17 12:27:37.500 ,0,1,,0,14.,4.8,1.,4.8,,0,0.,4.8,12.,4.8
1979-07-17 12:27:42.300 ,0,1,,0,22.,4.8,4.,4.8,,0,0.,4.8,15.,4.8
1979-07-17 12:27:47.100 ,0,1,,0,19.,4.8,2.,4.8,,0,0.,4.8,6.,4.8
1979-07-17 12:27:51.900 ,0,1,,0,0.,4.8,0.,4.8,,0,0.,4.8,4.,4.8
1979-07-17 12:27:56.700 ,0,1,,0,0.,4.8,0.,4.8,,0,0.,4.8,4.,4.8
1979-07-17 12:28:01.500 ,4,1,,0,0.,4.8,0.,4.8,,0,0.,4.8,4.,4.8
1979-07-17 12:28:06.300 ,4,1,,0,0.,4.8,0.,4.8,,0,0.,4.8,6.,4.8
1979-07-17 12:28:11.100 ,4,1,,0,6.,4.8,0.,4.8,,0,0.,4.8,6.,4.8
1979-07-17 12:28:15.900 ,4,1,,0,11.,4.8,0.,4.8,,0,0.,4.8,9.,4.8
1979-07-17 12:28:20.700 ,4,1,,0,16.,4.8,1.,4.8,,0,0.,4.8,6.,4.8
1979-07-17 12:28:25.500 ,7,1,,0,15.,4.8,1.,4.8,,0,0.,4.8,3.,4.8
1979-07-17 12:28:30.300 ,7,1,,0,9.,4.8,1.,4.8,,0,0.,4.8,2.,4.8
1979-07-17 12:28:35.100 ,7,1,,0,7.,4.8,1.,4.8,,0,0.,4.8,0.,4.8
1979-07-17 12:28:39.900 ,7,1,,0,0.,4.8,0.,4.8,,0,0.,4.8,0.,4.8
1979-07-17 12:28:44.700 ,7,1,,0,0.,4.8,0.,4.8,,0,0.,4.8,0.,4.8
1979-07-17 12:28:49.490 ,3,1,,0,0.,4.8,0.,4.8,,0,0.,4.8,1.,4.8
1979-07-17 12:28:54.300 ,3,1,,0,0.,4.8,0.,4.8,,0,0.,4.8,3.,4.8
1979-07-17 12:28:59.090 ,3,1,,0,3.,4.8,0.,4.8,,0,0.,4.8,3.,4.8
1979-07-17 12:29:03.900 ,3,1,,0,14.,4.8,2.,4.8,,0,0.,4.8,6.,4.8
1979-07-17 12:29:08.700 ,3,1,,0,17.,4.8,1.,4.8,,0,0.,4.8,3.,4.8
1979-07-17 12:29:13.490 ,0,1,,0,17.,4.8,0.,4.8,,0,0.,4.8,9.,4.8
1979-07-17 12:29:18.300 ,0,1,,0,27.,4.8,2.,4.8,,0,0.,4.8,1.,4.8
1979-07-17 12:29:23.090 ,0,1,,0,14.,4.8,1.,4.8,,0,0.,4.8,3.,4.8
1979-07-17 12:29:27.900 ,0,1,,0,0.,4.8,0.,4.8,,0,0.,4.8,5.,4.8
1979-07-17 12:29:32.690 ,0,1,,0,0.,4.8,0.,4.8,,0,0.,4.8,1.,4.8